Home > Weather > Zittau > Past weeks

Flag for Germany Weather for the Past 2 Weeks in Zittau, Saxony, Germany

Now
61 °F

Scattered clouds.


Feels Like: 61 °F
Forecast: 40 / 69 °F
Wind: 3 mph from Northwest

Location: Liberec

Current Time: May 5, 2016 at 3:31:01 PM

Latest Report: May 5, 2016 at 2:00 PM


Visibility: 22 mi

Pressure: 30.29 "Hg

Humidity: 48%

Dew Point: 41 °F

Location of ZittauLocation

Historic Weather in Zittau — Graph

°F

Zittau Temperature Yesterday

Maximum temperature yesterday: 45 °F (at 1:00 AM)
Minimum temperature yesterday: 42 °F (at 4:00 AM)
Average temperature yesterday: 43 °F

High & Low Weather Summary for the Past Weeks

 TemperatureHumidityPressure
High61 °F (May 2, 3:00 PM)97% (Apr 22, 6:00 AM)30.42 "Hg (Apr 22, 6:00 AM)
Low26 °F (Apr 25, 1:00 AM)27% (Apr 29, 3:00 PM)29.50 "Hg (Apr 26, 1:00 PM)
Average44 °F67%30.04 "Hg
* Reported Apr 20 2:00 PM — May 5 2:00 PM, Zittau, Weather by CustomWeather, © 2016

Note: Actual official high and low records may vary slightly from our data, if they occured in-between our weather recording intervals... More about our weather records

Advertising

Zittau Weather History for the Previous 24 Hours

Scroll right to see more
 ConditionsComfort  
Time TempWeatherWind HumidityBarometerVisibility
2:00 PM
Thu, May 5
61 °FScattered clouds.3 mph48%30.29 "Hg22 mi
1:00 PM58 °FScattered clouds.6 mph59%30.31 "Hg19 mi
12:00 PM56 °FScattered clouds.5 mph63%30.33 "Hg19 mi
11:00 AM52 °FScattered clouds.3 mph68%30.35 "Hg17 mi
10:00 AM48 °FPartly sunny.2 mph74%30.36 "Hg16 mi
9:00 AM45 °FOvercast.5 mph84%30.37 "Hg16 mi
8:00 AM44 °FOvercast.6 mph90%30.37 "Hg10 mi
7:00 AM43 °FQuite cool.5 mph93%30.37 "Hg7 mi
6:00 AM43 °FFog.3 mph95%30.37 "Hg6 mi
5:00 AM42 °FFog.2 mph97%30.36 "Hg4 mi
4:00 AM42 °FFog.2 mph94%30.36 "Hg3 mi
3:00 AM43 °FFog.3 mph95%30.36 "Hg4 mi
2:00 AM42 °FFog.3 mph96%30.37 "Hg4 mi
1:00 AM43 °FFog.2 mph97%30.37 "Hg4 mi
12:00 AM42 °FFog.2 mph96%30.37 "Hg2 mi
11:00 PM
Wed, May 4
44 °FFog.2 mph96%30.37 "Hg2 mi
10:00 PM44 °FLow clouds.2 mph96%30.36 "Hg3 mi
9:00 PM44 °FLight rain. Low clouds.2 mph95%30.35 "Hg3 mi
8:00 PM44 °FLight rain. Low clouds.2 mph95%30.34 "Hg4 mi
7:00 PM44 °FRain showers. Cloudy.2 mph95%30.33 "Hg3 mi
6:00 PM44 °FLight rain. Cloudy.3 mph95%30.32 "Hg4 mi
5:00 PM44 °FLight rain. Low clouds.3 mph93%30.31 "Hg4 mi
4:00 PM44 °FLight rain. Low clouds.3 mph95%30.30 "Hg4 mi
3:00 PM43 °FLight rain. Low clouds.3 mph96%30.30 "Hg3 mi
Weather by CustomWeather, © 2016

See weather overviewHow to use our weather pages